Location: *
(45.8589°N, 4.7139°E)
Time: 00:00:16
(UTC+00:00)

Cosmos 1825 - Pass Details

Date: 09 April 2020
Orbit: 502 x 509 km, 82.5° (Epoch: 02 June)

Event Time Altitude Azimuth Distance (km) Brightness Sun altitude
Rises 21:36:10 0° 344° (NNW) 2,628 6.8 -29.2°
Reaches altitude 10° 21:38:22 10° 338° (NNW) 1,736 5.7 -29.4°
Enters shadow 21:40:18 26° 321° (NW) 1,029 4.3 -29.6°
